Meath Environmental Platform

Observations for Trim Market St

Time AQI Temp °C Hum % Pres Pa CO μg/m³ H₂S μg/m³ NO μg/m³ NO₂ μg/m³ O₃ μg/m³ SO₂ μg/m³ PM1 μg/m³ PM2.5 μg/m³ PM10 μg/m³
Friday 21 August 2026
16:24 3 23.8 44 65,111 0.24 0 1.67 36.92 61.7 0 0 2.19 2.41
16:23 3 23.8 44 65,078 0.23 0 1.59 25.27 60.99 0 0.71 2.71 2.98
16:22 3 23.9 44 65,038 0.15 0 1.68 26.39 64.5 0 0 2.18 2.4
16:21 3 23.9 44 64,983 0.18 0 1.62 15.71 63.29 0 0 2.17 2.39
16:20 3 23.9 45 64,933 0.25 0 1.67 20.32 60.39 0 0 2.16 2.38
16:19 3 23.9 45 64,815 0.57 0 1.78 70.24 50.97 0 0 2.15 2.37
16:18 3 24 45 64,748 0.56 0 1.83 72.2 55.63 0 0.71 3.2 3.52
16:17 3 24 45 64,623 0.4 0 1.74 41.85 58.2 0 0 2.14 2.35
16:16 3 24 45 64,427 0.37 0 1.72 48.66 60.82 0 0 2.65 2.89
16:14 3 23.9 46 64,199 0.84 0 1.7 86.26 36.1 0 0 2.62 2.88
16:13 3 23.9 46 63,892 0.65 0 1.71 69.34 38.89 0 0 2.09 2.3
16:07 3 23.2 49 60,234 0.17 4.15 1.93 86.51 28.83 0 0 2.5 2.75
16:04 3 22.4 49 57,492 0.14 3.71 1.97 62.59 36.75 0 0 1.96 2.16
15:58 3 21.7 49 56,054 0.01 10.77 2.08 67.93 48.42 0 0 1.96 2.16
15:57 3 21.6 49 56,142 0.06 12.46 2.1 123.03 0 0 2.14 4.03 4.53
15:56 3 21.6 49 56,212 0.09 14.42 2.04 97.16 20.81 0 0 1.98 2.17
15:55 3 21.6 49 56,341 0.25 13.55 1.9 109.95 7.95 0 0 1.98 2.18
15:53 3 21.6 49 56,804 0.01 12.75 1.92 60.97 43.33 0 0 1.99 2.19
15:52 3 21.6 48 57,094 0.14 18.98 1.91 92.9 41.07 0 0 2.53 2.78
15:50 3 21.7 48 57,724 0.21 17.85 1.92 99.73 25.55 0 0 2.04 2.25